Flag for Ecuador Weather past 2 weeks in Guayaquil, Ecuador

Now
73 °F

Passing clouds.


Feels Like: 73 °F
Forecast: 72 / 90 °F
Wind: 15 mph from Southwest

Location: Guayaquil / Simon Bolivar

Current Time: Sep 4, 2015 at 1:35:36 AM

Latest Report: Sep 4, 2015 at 1:00 AM


Visibility: N/A

Pressure: 29.83 "Hg

Humidity: 83%

Dew point: 68 °F

Location of GuayaquilLocation

Historic Weather in Guayaquil — Graph

°F

Guayaquil temperature yesterday

Maximum temperature yesterday: 88 °F (at 3:00 PM)
Minimum temperature yesterday: 73 °F (at 12:00 AM)
Average temperature yesterday: 79 °F

Past Weeks' High & Low Weather Summary

 TemperatureHumidityPressure
High90 °F (Aug 21, 3:00 PM)100% (Aug 27, 4:00 AM)29.95 "Hg (Aug 27, 4:00 AM)
Low36 °F (Aug 27, 4:00 AM)49% (Aug 30, 1:00 PM)29.71 "Hg (Aug 28, 4:00 PM)
Average78 °F72%29.84 "Hg
* Reported Midnight between Aug 19 and Aug 20 — Midnight between Sep 3 and Sep 4, Guayaquil, Weather by CustomWeather, © 2015

Note: Actual official high and low records may vary slightly from our data, if they occured in-between our weather recording intervals... More about our weather records

Advertising

Guayaquil weather history for previous 24 hours

 ConditionsComfort  
Time TempWeatherWind HumidityBarometerVisibility
12:00 AM
Fri, Sep 4
73 °FPassing clouds.14 mph83%29.86 "HgN/A
11:00 PM
Thu, Sep 3
75 °FPassing clouds.13 mph74%29.86 "HgN/A
10:00 PM77 °FPassing clouds.12 mph69%29.86 "HgN/A
9:00 PM79 °FPassing clouds.8 mph65%29.83 "HgN/A
8:00 PM82 °FPassing clouds.14 mph62%29.83 "HgN/A
7:00 PM82 °FWarm.14 mph66%29.80 "HgN/A
6:00 PM84 °FScattered clouds.8 mph58%29.77 "HgN/A
5:00 PM88 °FScattered clouds.6 mph52%29.77 "HgN/A
4:00 PM88 °FWarm.5 mph52%29.77 "HgN/A
3:00 PM88 °FPassing clouds.6 mph52%29.77 "HgN/A
2:00 PM86 °FPassing clouds.7 mph55%29.80 "HgN/A
1:00 PM84 °FScattered clouds.6 mph58%29.83 "HgN/A
12:00 PM82 °FBroken clouds.5 mph62%29.89 "HgN/A
11:00 AM81 °FBroken clouds.6 mph66%29.89 "HgN/A
10:00 AM79 °FBroken clouds.6 mph65%29.92 "HgN/A
9:00 AM79 °FScattered clouds.9 mph70%29.92 "HgN/A
8:00 AM75 °FPartly sunny.7 mph74%29.89 "HgN/A
7:00 AM73 °FPartly sunny.8 mph78%29.89 "HgN/A
6:00 AM73 °FPassing clouds.7 mph78%29.86 "HgN/A
5:00 AM73 °FPassing clouds.6 mph78%29.86 "HgN/A
4:00 AM73 °FPartly cloudy.8 mph78%29.86 "Hg6 mi
3:00 AM73 °FPassing clouds.6 mph78%29.86 "HgN/A
2:00 AM73 °FPassing clouds.8 mph78%29.89 "HgN/A
1:00 AM73 °FPassing clouds.10 mph78%29.89 "HgN/A
Weather by CustomWeather, © 2015

See weather overviewHow to use our weather pages